FW9940 Weather Reports


time (UTC)temp
F
wind
direction
speed
knots
gust
knots
rain 1hr
in
rain 24hr
in
rain mn
in
humidity
%
barometer
mb
20260506051243 51 264 0.9 0.9 0.00 0.00 0.00 54 1007.5
20260506050244 51 282 0.9 0.9 0.00 0.00 0.00 53 1007.5
20260506044743 51 298 0.9 0.9 0.00 0.00 0.00 53 1007.5
20260506043743 51 267 0.9 0.9 0.00 0.00 0.00 52 1007.5
20260506042743 51 274 0.9 0.9 0.00 0.00 0.00 53 1007.8
20260506042243 51 269 0.9 0.9 0.00 0.00 0.00 53 1007.8
20260506041243 51 285 0.9 0.9 0.00 0.00 0.04 53 1007.5
20260506040243 51 261 0.9 0.9 0.00 0.00 0.04 52 1007.5
20260506035243 52 273 0.9 0.9 0.00 0.00 0.04 52 1007.8
20260506034743 52 229 0.9 0.9 0.00 0.00 0.04 53 1007.8
20260506033743 52 331 0.9 0.9 0.00 0.00 0.04 52 1007.5
20260506032743 52 268 0.9 0.9 0.00 0.00 0.04 52 1007.8
20260506031743 52 310 0.9 0.9 0.00 0.00 0.04 54 1007.8
20260506030744 52 274 0.9 0.9 0.00 0.00 0.04 56 1007.8
20260506030243 52 251 0.9 0.9 0.00 0.00 0.04 58 1007.8
20260506025243 52 270 0.0 0.0 0.00 0.00 0.04 59 1008.1
20260506024743 52 280 0.0 0.0 0.00 0.00 0.04 61 1008.1
20260506023744 52 270 0.0 0.0 0.00 0.00 0.04 64 1007.8
20260506022744 52 268 0.0 0.0 0.00 0.00 0.04 70 1007.5
20260506022243 52 315 0.0 0.0 0.00 0.00 0.04 71 1007.8
20260506021243 52 235 0.0 0.0 0.00 0.00 0.04 72 1007.5
20260506020244 52 181 0.0 0.0 0.00 0.00 0.04 75 1007.5
20260506015744 52 210 0.0 0.0 0.00 0.00 0.04 75 1007.5
20260506015244 52 83 0.0 0.0 0.00 0.00 0.04 76 1007.5
20260506014244 52 247 0.0 0.0 0.00 0.00 0.04 77 1007.5
20260506013744 52 239 0.0 0.0 0.00 0.00 0.04 77 1007.5
20260506012744 52 107 0.0 0.0 0.00 0.00 0.04 77 1007.5
20260506012244 53 218 0.0 0.0 0.00 0.00 0.04 77 1007.5
20260506011244 53 235 0.0 0.0 0.00 0.00 0.04 77 1007.5
20260506010743 53 193 0.0 0.0 0.00 0.00 0.04 77 1007.5
20260506005744 53 206 0.0 0.0 0.00 0.00 0.04 76 1007.5
20260506004744 53 215 0.0 0.0 0.00 0.00 0.04 76 1007.1
20260506003747 53 229 0.0 0.0 0.00 0.00 0.04 76 1007.1
20260506002744 53 247 0.0 0.0 0.00 0.00 0.04 76 1007.1
20260506002244 53 199 0.0 0.0 0.00 0.00 0.04 76 1007.1
20260506001245 53 193 0.0 0.0 0.00 0.00 0.04 75 1006.8
20260506000744 54 152 0.0 0.0 0.00 0.00 0.04 75 1006.8
20260506000244 54 244 0.0 0.0 0.00 0.00 0.04 75 1006.8
20260505235244 54 198 0.9 0.9 0.00 0.00 0.04 75 1006.4
20260505234243 54 262 0.9 0.9 0.00 0.00 0.04 74 1006.4
20260505233244 54 224 0.9 0.9 0.00 0.00 0.04 75 1006.4
20260505232744 54 184 0.9 0.9 0.00 0.00 0.04 76 1006.8
20260505231744 54 197 0.9 0.9 0.00 0.00 0.04 76 1006.8
20260505230744 54 193 0.9 0.9 0.00 0.00 0.04 76 1006.8
20260505225745 54 194 0.9 0.9 0.00 0.00 0.04 75 1006.8
20260505224744 54 221 0.9 0.9 0.00 0.00 0.04 75 1006.8
20260505224244 54 175 0.9 0.9 0.00 0.00 0.04 77 1007.1
20260505223244 54 173 0.9 0.9 0.00 0.00 0.04 78 1007.1
20260505222745 54 193 0.9 0.9 0.00 0.00 0.04 79 1007.1
20260505221744 53 185 0.9 0.9 0.00 0.00 0.04 79 1006.8
20260505220745 53 137 1.7 1.7 0.00 0.00 0.04 80 1006.8
20260505215744 53 149 1.7 1.7 0.00 0.00 0.04 80 1006.8
20260505215244 53 149 1.7 1.7 0.00 0.00 0.04 80 1006.8
20260505214244 53 150 1.7 1.7 0.00 0.00 0.04 79 1007.1
20260505213744 53 147 1.7 1.7 0.00 0.00 0.04 80 1007.1
20260505212744 53 151 1.7 1.7 0.00 0.00 0.04 79 1006.8
20260505212245 53 182 1.7 1.7 0.00 0.00 0.04 79 1006.8
20260505211244 53 153 1.7 1.7 0.00 0.00 0.04 79 1007.1
20260505210744 53 249 1.7 1.7 0.00 0.00 0.04 79 1006.8
20260505205745 52 150 1.7 1.7 0.00 0.00 0.04 79 1007.1
20260505205244 52 156 1.7 1.7 0.00 0.00 0.04 79 1006.8
20260505204245 51 160 0.9 0.9 0.00 0.00 0.04 79 1007.1
20260505203744 51 148 0.9 0.9 0.00 0.00 0.04 80 1007.1
20260505202744 49 89 0.9 0.9 0.00 0.00 0.04 80 1007.1
20260505202244 48 88 0.9 0.9 0.00 0.00 0.04 80 1007.5
20260505201744 48 112 0.9 0.9 0.00 0.00 0.04 80 1007.5
20260505200744 48 127 0.9 0.9 0.00 0.00 0.04 79 1007.5
20260505200244 48 138 1.7 1.7 0.00 0.00 0.04 78 1007.5
20260505195244 48 92 0.9 0.9 0.00 0.00 0.04 78 1007.5
20260505194244 48 76 1.7 1.7 0.00 0.00 0.04 76 1007.5
20260505193244 47 50 1.7 1.7 0.00 0.00 0.04 79 1007.8
20260505192744 47 30 1.7 1.7 0.00 0.00 0.04 78 1007.8
20260505192244 47 30 1.7 1.7 0.00 0.00 0.04 78 1007.5
20260505191244 47 46 1.7 1.7 0.00 0.00 0.04 76 1007.5
20260505190244 48 56 1.7 1.7 0.00 0.00 0.04 75 1007.5
20260505185244 48 63 1.7 1.7 0.00 0.00 0.04 77 1007.1
20260505184244 47 31 1.7 1.7 0.00 0.00 0.04 76 1007.1
20260505183244 47 32 1.7 1.7 0.00 0.00 0.04 77 1007.1
20260505182745 47 32 1.7 1.7 0.00 0.00 0.04 76 1007.1
20260505182245 48 40 1.7 1.7 0.00 0.00 0.04 77 1007.1
20260505181245 48 38 1.7 1.7 0.00 0.00 0.04 76 1007.1
20260505180245 47 36 0.9 0.9 0.02 0.00 0.05 77 1007.1
20260505175744 47 36 0.9 0.9 0.02 0.00 0.05 77 1006.8
20260505174745 47 58 0.9 0.9 0.03 0.00 0.05 75 1006.8
20260505173745 46 75 0.9 0.9 0.03 0.00 0.05 75 1006.8
20260505172745 46 74 0.9 0.9 0.03 0.00 0.05 79 1007.1
20260505171745 45 117 0.9 0.9 0.03 0.00 0.05 77 1006.8
20260505170744 46 81 0.9 0.9 0.02 0.00 0.04 77 1006.8
20260505165745 46 39 0.9 0.9 0.02 0.00 0.03 76 1006.8
20260505165245 46 49 0.9 0.9 0.01 0.00 0.03 76 1006.8
20260505164245 46 142 0.9 0.9 0.01 0.00 0.02 75 1007.1
20260505163745 46 66 0.9 0.9 0.01 0.00 0.02 74 1007.1
20260505162745 47 83 1.7 1.7 0.01 0.00 0.01 72 1007.1
20260505162245 47 19 1.7 1.7 0.01 0.00 0.01 73 1007.1
20260505161745 48 28 1.7 1.7 0.01 0.00 0.01 71 1007.5
20260505160744 47 39 1.7 1.7 0.01 0.00 0.01 70 1007.1
20260505153245 48 48 1.7 1.7 0.00 0.00 0.01 67 1006.4
20260505152246 48 47 1.7 1.7 0.00 0.00 0.01 66 1006.1
20260505151744 48 50 1.7 1.7 0.00 0.00 0.01 65 1006.1
20260505150745 48 43 1.7 1.7 0.00 0.00 0.01 64 1006.4
20260505140245 47 28 2.6 2.6 0.00 0.00 0.00 69 1005.8
20260505124746 47 26 2.6 2.6 0.00 0.00 0.00 74 1004.7
20260505123746 47 37 1.7 1.7 0.00 0.00 0.00 75 1004.4
20260505123245 47 26 2.6 2.6 0.00 0.00 0.00 75 1004.1
20260505122246 47 26 1.7 1.7 0.00 0.00 0.00 76 1004.1
20260505121246 47 23 1.7 1.7 0.00 0.00 0.00 75 1004.1
20260505120746 47 39 1.7 1.7 0.00 0.00 0.00 75 1004.1
20260505120245 47 20 1.7 1.7 0.00 0.00 0.00 75 1003.7
20260505115245 47 22 1.7 1.7 0.00 0.00 0.00 75 1003.7
20260505114245 47 35 1.7 1.7 0.00 0.00 0.00 74 1003.4
20260505113745 46 40 1.7 1.7 0.00 0.00 0.00 75 1003.4
20260505112745 46 20 2.6 2.6 0.00 0.00 0.00 75 1003.0
20260505112245 46 18 2.6 2.6 0.00 0.00 0.00 75 1003.4
20260505111245 47 29 1.7 1.7 0.00 0.00 0.00 74 1003.0
20260505110246 47 34 1.7 1.7 0.00 0.00 0.00 75 1002.7
20260505101747 47 30 3.5 3.5 0.00 0.00 0.00 81 1001.7
20260505101245 47 27 2.6 2.6 0.00 0.00 0.00 82 1001.7
20260505100246 48 24 1.7 1.7 0.00 0.00 0.00 83 1001.7
20260505095245 56 30 0.9 0.9 0.00 0.00 0.00 77 1001.4
20260505094746 60 31 0.9 0.9 0.00 0.00 0.00 75 1000.7
20260505094246 60 347 0.9 0.9 0.00 0.00 0.00 74 1000.3
20260505093247 60 244 0.9 0.9 0.00 0.00 0.00 74 1000.3
20260505092746 60 266 0.9 0.9 0.00 0.00 0.00 73 1000.3
20260505091745 61 263 1.7 1.7 0.00 0.00 0.00 73 999.7
20260505090746 61 229 1.7 1.7 0.00 0.00 0.00 72 999.7
20260505090246 61 246 1.7 1.7 0.00 0.00 0.00 72 999.3
20260505085245 61 239 1.7 1.7 0.00 0.00 0.00 72 999.3
20260505084246 61 259 1.7 1.7 0.00 0.00 0.00 72 999.3
20260505083247 61 243 1.7 1.7 0.00 0.00 0.00 72 999.0
20260505082746 61 254 1.7 1.7 0.00 0.00 0.00 72 999.0
20260505082246 62 242 1.7 1.7 0.00 0.00 0.00 71 999.0
20260505081246 62 251 1.7 1.7 0.00 0.00 0.00 71 998.6
20260505080745 62 243 1.7 1.7 0.00 0.00 0.00 71 998.6
20260505075745 62 243 1.7 1.7 0.00 0.00 0.00 71 998.6
20260505074745 62 257 1.7 1.7 0.00 0.00 0.00 71 998.6
20260505073746 62 260 1.7 1.7 0.00 0.00 0.00 70 998.6
20260505073246 63 245 1.7 1.7 0.00 0.00 0.00 70 998.3
20260505072746 63 260 1.7 1.7 0.00 0.00 0.00 69 998.3
20260505071746 63 247 2.6 2.6 0.00 0.00 0.00 68 998.6
20260505070747 64 296 2.6 2.6 0.00 0.00 0.00 68 998.6
20260505070246 64 267 1.7 1.7 0.00 0.00 0.00 68 999.0
20260505065246 64 261 2.6 2.6 0.00 0.00 0.00 68 998.6
20260505064246 64 255 2.6 2.6 0.00 0.00 0.00 66 998.6
20260505063246 64 257 2.6 2.6 0.00 0.00 0.00 68 998.3
20260505062246 65 227 2.6 2.6 0.00 0.00 0.00 70 998.3
20260505061246 65 221 2.6 2.6 0.00 0.00 0.00 70 998.6
20260505060246 64 235 1.7 1.7 0.00 0.00 0.00 70 998.6
20260505055247 64 253 1.7 1.7 0.00 0.00 0.00 69 999.0